Flag for Puerto Rico Weather past 2 weeks in Caguas, Puerto Rico

Now
89 °F

Passing clouds.


Feels Like: 100 °F
Forecast: 74 / 91 °F
Wind: 17 mph from East

Location: Luis Munoz Marin

Current Time: Jul 29, 2015 at 2:10:01 PM

Latest Report: Jul 29, 2015 at 12:56 PM


Visibility: 10 mi

Pressure: 30.03 "Hg

Humidity: 65%

Dew point: 76 °F

Location of CaguasLocation

Historic Weather in Caguas — Graph

°F

Caguas temperature yesterday

Maximum temperature yesterday: 89 °F (at 10:56 AM)
Minimum temperature yesterday: 80 °F (at 2:56 AM)
Average temperature yesterday: 84 °F

Past Weeks' High & Low Weather Summary

 TemperatureHumidityPressure
High93 °F (Jul 22, 2:56 PM)100% (Jul 21, 4:56 AM)30.12 "Hg (Jul 21, 4:56 AM)
Low76 °F (Jul 19, 3:56 AM)52% (Jul 22, 2:56 PM)29.96 "Hg (Jul 21, 4:56 PM)
Average83 °F79%30.04 "Hg
* Reported Jul 14 12:56 PM — Jul 29 12:56 PM, Caguas, Weather by CustomWeather, © 2015

Note: Actual official high and low records may vary slightly from our data, if they occured in-between our weather recording intervals... More about our weather records

Advertising

Caguas weather history for previous 24 hours

 ConditionsComfort  
Time TempWeatherWind HumidityBarometerVisibility
12:56 PM
Wed, Jul 29
89 °FPassing clouds.17 mph65%30.03 "Hg10 mi
11:56 AM89 °FScattered clouds.21 mph65%30.04 "Hg10 mi
10:56 AM88 °FScattered clouds.18 mph67%30.05 "Hg10 mi
9:56 AM87 °FScattered clouds.14 mph67%30.05 "Hg10 mi
8:56 AM84 °FScattered clouds.9 mph74%30.05 "Hg10 mi
7:56 AM83 °FScattered clouds.7 mph74%30.04 "Hg10 mi
6:56 AM81 °FPartly cloudy.3 mph79%30.04 "Hg10 mi
5:56 AM80 °FPartly cloudy.3 mph81%30.02 "Hg9 mi
4:56 AM80 °FPassing clouds.3 mph81%30.01 "Hg10 mi
3:56 AM80 °FPassing clouds.3 mph81%30.01 "Hg10 mi
2:56 AM80 °FPassing clouds.No wind85%30.01 "Hg10 mi
1:56 AM80 °FPassing clouds.6 mph85%30.01 "Hg10 mi
12:56 AM81 °FPassing clouds.7 mph85%30.03 "Hg10 mi
11:56 PM
Tue, Jul 28
81 °FPassing clouds.9 mph85%30.05 "Hg10 mi
10:56 PM82 °FPassing clouds.7 mph85%30.06 "Hg10 mi
9:56 PM82 °FPassing clouds.7 mph85%30.05 "Hg10 mi
8:56 PM82 °FPassing clouds.10 mph82%30.04 "Hg10 mi
7:56 PM82 °FScattered clouds.12 mph82%30.03 "Hg10 mi
6:56 PM83 °FScattered clouds.14 mph82%30.01 "Hg9 mi
4:56 PM86 °FScattered clouds.17 mph70%29.99 "Hg9 mi
3:56 PM88 °FScattered clouds.18 mph63%29.98 "Hg9 mi
2:56 PM89 °FScattered clouds.23 mph63%29.99 "Hg9 mi
Weather by CustomWeather, © 2015

See weather overviewHow to use our weather pages